Location: Bas-Clignon
(44.2000°N, 6.6333°E)
Time: 13:14:44
(UTC+00:00)

Cosmos 468 Rocket - Pass Details

Date: 03 February 2023
Orbit: 744 x 778 km, 74.0° (Epoch: 19 March)

Event Time Altitude Azimuth Distance (km) Brightness Sun altitude
Rises 18:00:52 0° 339° (NNW) 3,218 7.4 -13.8°
Reaches altitude 10° 18:03:15 10° 340° (NNW) 2,285 6.6 -14.2°
Maximum altitude 18:08:27 85° 70° (ENE) 757 3.9 -15.1°
Drops below altitude 10° 18:13:33 10° 159° (SSE) 2,254 6.3 -16.0°
Sets 18:15:54 0° 160° (SSE) 3,171 7.1 -16.4°
